User: anonymous   Login
Location: Fort Wayne
(41.1310°N, 85.1290°W)
Time: 19:24:58
(UTC-05:00)
Language:

Cosmos 2082 - Orbit

View from above orbital plane
View from above orbital plane
View from above satellite
View from above satellite

Ground track
Ground track

The orbit data is extracted from the following two-line orbital elements,

1 20624U 90046A   17345.09495578 -.00000006  00000-0  21484-4 0  9990
2 20624  71.0386 204.2921 0013266 122.5131 237.7275 14.14233602422203
Epoch (UTC): 11 December 2017 02:16:44
Eccentricity: 0.0013266
inclination: 71.0386°
perigee height: 835 km
apogee height: 854 km
right ascension of ascending node: 204.2921°
argument of perigee: 122.5131°
revolutions per day: 14.14233602
mean anomaly at epoch: 237.7275°
orbit number at epoch: 42220

The dashed part of the orbit path shows where the satellite is in the earth's shadow,  

DLR